Location: Poughquag
(41.6090°N, 73.6820°W)
Time: 12:45:14
(UTC-04:00)

A-11 Canister half - Pass Details

Date: 07 June 2020
Orbit: 1527 x 1682 km, 47.3° (Epoch: 06 July)

Event Time Altitude Azimuth Distance (km) Brightness Sun altitude
Rises 10:06:13 0° 287° (WNW) 4,682 11.2 50.4°
Reaches altitude 10° 10:09:16 10° 290° (WNW) 3,705 10.7 51.0°
Maximum altitude 10:18:37 69° 14° (NNE) 1,646 10.1 52.6°
Drops below altitude 10° 10:28:11 10° 98° (E) 3,794 11.8 54.3°
Sets 10:31:21 0° 101° (E) 4,800 12.1 54.9°
